User: anonymous   Login
Location: Oshawa
(43.9000°N, 78.8670°W)
Time: 00:15:10
(UTC-04:00)
Language:

SPOT 5 - Orbit

View from above orbital plane
View from above orbital plane
View from above satellite
View from above satellite

Ground track
Ground track

The orbit data is extracted from the following two-line orbital elements,

1 27421U 02021A   16121.73393437  .00000030  00000-0  18146-4 0  9998
2 27421  98.4604 177.2262 0136057 149.6947 211.2205 14.51790312725828
Epoch (UTC): 30 April 2016 17:36:51
Eccentricity: 0.0136057
inclination: 98.4604°
perigee height: 623 km
apogee height: 816 km
right ascension of ascending node: 177.2262°
argument of perigee: 149.6947°
revolutions per day: 14.51790312
mean anomaly at epoch: 211.2205°
orbit number at epoch: 72582

The dashed part of the orbit path shows where the satellite is in the earth's shadow,  

DLR